TimeIST,TemperatureF,Dew PointF,Humidity,Sea Level PressureIn,VisibilityMPH,Wind Direction,Wind SpeedMPH,Gust SpeedMPH,PrecipitationIn,Events,Conditions,WindDirDegrees,DateUTC
12:20 AM,53.6,46.4,77,30.06,6.2,Variable,3.5,-,N/A,,Partly Cloudy,0,2013-03-01 22:20:00
12:50 AM,51.8,46.4,82,30.06,6.2,Variable,3.5,-,N/A,,Partly Cloudy,0,2013-03-01 22:50:00
1:20 AM,51.8,44.6,76,30.04,6.2,SE,4.6,-,N/A,,Scattered Clouds,130,2013-03-01 23:20:00
1:50 AM,51.8,44.6,76,30.04,6.2,Variable,3.5,-,N/A,,Partly Cloudy,0,2013-03-01 23:50:00
2:00 AM,52,45,71,30.05,6,,3.5,,,,,,2013-03-02 00:00:00
2:20 AM,51.8,44.6,76,30.04,6.2,Variable,3.5,-,N/A,,Scattered Clouds,0,2013-03-02 00:20:00
2:50 AM,50.0,44.6,82,30.04,6.2,Variable,3.5,-,N/A,,Partly Cloudy,0,2013-03-02 00:50:00
3:20 AM,50.0,44.6,82,30.04,6.2,Variable,3.5,-,N/A,,Partly Cloudy,0,2013-03-02 01:20:00
3:50 AM,51.8,44.6,76,30.04,-9999.0,Variable,2.3,-,N/A,,Clear,0,2013-03-02 01:50:00
4:20 AM,51.8,44.6,76,30.01,-9999.0,Variable,3.5,-,N/A,,Clear,0,2013-03-02 02:20:00
4:50 AM,50.0,44.6,82,30.04,-9999.0,Variable,2.3,-,N/A,,Clear,0,2013-03-02 02:50:00
5:20 AM,50.0,44.6,82,30.04,-9999.0,Variable,2.3,-,N/A,,Clear,0,2013-03-02 03:20:00
5:50 AM,50.0,44.6,82,30.04,6.2,Variable,1.2,-,N/A,,Partly Cloudy,0,2013-03-02 03:50:00
6:20 AM,48.2,44.6,87,30.04,6.2,Variable,2.3,-,N/A,,Partly Cloudy,0,2013-03-02 04:20:00
6:50 AM,50.0,44.6,82,30.04,6.2,Variable,2.3,-,N/A,,Partly Cloudy,0,2013-03-02 04:50:00
7:20 AM,50.0,44.6,82,30.04,-9999.0,Variable,2.3,-,N/A,,Clear,0,2013-03-02 05:20:00
7:50 AM,55.4,44.6,67,30.04,-9999.0,Variable,1.2,-,N/A,,Clear,0,2013-03-02 05:50:00
8:00 AM,54,45,63,30.05,6,,1.2,,,,,,2013-03-02 06:00:00
8:20 AM,57.2,46.4,67,30.06,-9999.0,Variable,1.2,-,N/A,,Clear,0,2013-03-02 06:20:00
8:50 AM,60.8,46.4,59,30.06,-9999.0,Variable,1.2,-,N/A,,Clear,0,2013-03-02 06:50:00
9:20 AM,62.6,44.6,52,30.06,-9999.0,Variable,2.3,-,N/A,,Clear,0,2013-03-02 07:20:00
9:50 AM,62.6,44.6,52,30.06,-9999.0,Variable,2.3,-,N/A,,Clear,0,2013-03-02 07:50:00
10:20 AM,64.4,41.0,42,30.06,-9999.0,Variable,3.5,-,N/A,,Clear,0,2013-03-02 08:20:00
10:50 AM,64.4,41.0,42,30.04,-9999.0,Variable,3.5,-,N/A,,Clear,0,2013-03-02 08:50:00
11:20 AM,68.0,39.2,35,30.04,-9999.0,Variable,3.5,-,N/A,,Clear,0,2013-03-02 09:20:00
11:50 AM,69.8,37.4,31,30.01,-9999.0,Variable,2.3,-,N/A,,Clear,0,2013-03-02 09:50:00
12:20 PM,69.8,39.2,33,30.01,-9999.0,Variable,2.3,-,N/A,,Clear,0,2013-03-02 10:20:00
12:50 PM,69.8,37.4,31,29.98,-9999.0,Variable,3.5,-,N/A,,Clear,0,2013-03-02 10:50:00
1:20 PM,71.6,35.6,27,29.98,-9999.0,Variable,2.3,-,N/A,,Clear,0,2013-03-02 11:20:00
1:50 PM,73.4,35.6,25,29.98,-9999.0,Variable,2.3,-,N/A,,Clear,0,2013-03-02 11:50:00
2:00 PM,74,36,15,29.98,6,,2.3,,,,,,2013-03-02 12:00:00
2:20 PM,73.4,35.6,25,29.95,-9999.0,Variable,2.3,-,N/A,,Clear,0,2013-03-02 12:20:00
2:50 PM,71.6,42.8,35,29.95,-9999.0,WNW,8.1,-,N/A,,Clear,300,2013-03-02 12:50:00
3:20 PM,71.6,42.8,35,29.95,-9999.0,NNW,8.1,-,N/A,,Clear,340,2013-03-02 13:20:00
3:50 PM,71.6,42.8,35,29.95,-9999.0,North,8.1,-,N/A,,Clear,350,2013-03-02 13:50:00
4:20 PM,71.6,44.6,38,29.95,-9999.0,NNW,6.9,-,N/A,,Clear,330,2013-03-02 14:20:00
4:50 PM,69.8,44.6,40,29.95,-9999.0,NNW,8.1,-,N/A,,Clear,340,2013-03-02 14:50:00
5:20 PM,68.0,44.6,43,29.95,-9999.0,North,5.8,-,N/A,,Clear,360,2013-03-02 15:20:00
5:50 PM,66.2,46.4,49,29.95,-9999.0,North,5.8,-,N/A,,Clear,350,2013-03-02 15:50:00
6:20 PM,66.2,48.2,52,29.95,6.2,Variable,3.5,-,N/A,,Partly Cloudy,0,2013-03-02 16:20:00
6:50 PM,66.2,50.0,56,29.95,-9999.0,Variable,3.5,-,N/A,,Clear,0,2013-03-02 16:50:00
7:20 PM,64.4,50.0,59,29.95,-9999.0,Variable,3.5,-,N/A,,Clear,0,2013-03-02 17:20:00
7:50 PM,64.4,50.0,59,29.95,-9999.0,Variable,3.5,-,N/A,,Clear,0,2013-03-02 17:50:00
8:00 PM,64,51,52,29.96,6,,2.3,,,,,,2013-03-02 18:00:00
8:20 PM,62.6,48.2,59,29.95,-9999.0,Variable,3.5,-,N/A,,Clear,0,2013-03-02 18:20:00
8:50 PM,60.8,48.2,63,29.92,-9999.0,East,4.6,-,N/A,,Clear,80,2013-03-02 18:50:00
9:20 PM,59.0,48.2,67,29.92,-9999.0,Variable,2.3,-,N/A,,Clear,0,2013-03-02 19:20:00
9:50 PM,60.8,48.2,63,29.92,-9999.0,Variable,2.3,-,N/A,,Clear,0,2013-03-02 19:50:00
10:20 PM,60.8,48.2,63,29.92,-9999.0,Variable,3.5,-,N/A,,Clear,0,2013-03-02 20:20:00
10:50 PM,60.8,48.2,63,29.92,-9999.0,Variable,3.5,-,N/A,,Clear,0,2013-03-02 20:50:00
11:20 PM,60.8,48.2,63,29.89,-9999.0,Variable,3.5,-,N/A,,Clear,0,2013-03-02 21:20:00
11:50 PM,59.0,48.2,67,29.86,-9999.0,Variable,3.5,-,N/A,,Clear,0,2013-03-02 21:50:00